Location: Monrovia
(34.7865°N, 86.7139°W)
Time: 22:07:24
(UTC+00:00)

Cosmos 1048 Rocket - Pass Details

Date: 14 July 2020
Orbit: 744 x 791 km, 74.0° (Epoch: 08 August)

Event Time Altitude Azimuth Distance (km) Brightness Sun altitude
Exits shadow 04:26:13 57° 9° (N) 903 4.5 -30.0°
Drops below altitude 10° 04:30:23 10° 16° (NNE) 2,309 7.1 -30.3°
Sets 04:32:45 0° 17° (NNE) 3,231 7.9 -30.5°
